METEOR 2-5 DEB, 40214

Orbit data source: Space-Track

METEOR 2-5 DEB, 40214 is space debris in LEO originally from a launch on Wed, 31 Oct 1979 UTC launched from the Plesetsk Missile And Space Complex (PKMTR). Debris objects in space refer to the collection of defunct objects orbiting the Earth. Examples of debris include non-operational satellites, rocket bodies, and fragments generated from explosions, collisions, or faulty payload assembly.

Loading next visibility...
Identifier
40214, 1979-095CM
Orbit
LEO
Country
Flag of CISCIS
Related business
Manufacturer
Unknown
Mission
Spacecraft
Bus & Motor
Unknown
Mass
Unknown
Launch date (UTC)
1979-10-31 (46 years ago)
Launch vehicle
Unknown
Launch site
Plesetsk Missile And Space Complex (PKMTR)
Object type
Payload
Rocket body
Debris
Shape & HBR
Unknown shape, 0.1 m
Radar Cross Section
Small (<0.1 m²)

Expand to show TLE details & history
Last TLE update: 2 days ago

TLE from 2 days ago
0 METEOR 2-5 DEB
1 40214U 79095CM  25353.26833485  .00005037  00000-0  18626-2 0  9998
2 40214  81.2045 338.2021 0011635 205.7497 154.3109 14.32238233581303
Epoch: 2025-12-19T06:26Z
TLE epoch observation values (Epoch: 2025-12-19T06:26:24.131Z)
Latitude
0.00008°
Longitude
153.48964°
Altitude
794.701 km
Speed
7.452 km/s
True Right ascension
22h 32m 48s
True Declination
0° 00' 00"
Sunlit
Object was in daylight at epoch
Visualization orbit readout
Latitude
Unknown
Longitude
Unknown
Altitude
Unknown
Speed
Unknown
Apparent Right ascension
Unknown
Apparent Declination
Unknown
Sunlit
N/A
Visualization observer readout
Local Sidereal Time
01:12:49
Azimuth
Unknown
Elevation
Unknown
Doppler factor
Unknown
Orbital elements
Apogee altitude
789.736 km
Perigee altitude
773.075 km
Semi-major axis
7,159.542 km
Eccentricity
0.00116
Inclination
81.2045°
RAAN
338.2021°
Arg. of periapsis
205.7497°
True anomaly
154.36862°
Mean anomaly
154.3109°
Eccentric anomaly
154.33977°
Mean motion
3.58274 °/min
Orbital period
100.48 mins
BSTAR
0.0018626
Loading maneuver chart data...
Computing Atmospheric mass density...

Documentation

Showing up to 5 results
|